Location: Capelle
(50.3413°N, 1.9974°E)
Time: 22:43:19
(UTC+00:00)

ISS - Pass Details

Date: 12 January 2026
Orbit: 414 x 429 km, 51.6° (Epoch: 7 February)

Event Time Altitude Azimuth Distance (km) Brightness Sun altitude
Rises 18:06:08 0° 202° (SSW) 2,352 0.6 -17.3°
Reaches altitude 10° 18:08:45 10° 180° (S) 1,497 -0.8 -17.7°
Enters shadow 18:10:18 16° 153° (SSE) 1,208 -1.6 -18.0°
